Find Local Weather

World > North America > United States > Washington

Sunnyside, Washington Regional Weather

Lat: 46.32N, Lon: 120.01W
Wx Zone: WAZ027
Feedback
Expires:201808172300;;223062
ASUS46 KSEW 172210
RWRWA 

WASHINGTON REGIONAL WEATHER ROUNDUP
NATIONAL WEATHER SERVICE SEATTLE WA
300 PM PDT FRI AUG 17 2018

NOTE:"FAIR" INDICATES FEW OR NO CLOUDS BELOW 12,000 FEET WITH NO 
SIGNIFICANT WEATHER AND/OR OBSTRUCTIONS TO VISIBILITY.


WAZ026-027-041>044-520-521-172300-
EAST SLOPES
  
CITY           SKY/WX    TMP DP  RH WIND       PRES   REMARKS
OMAK           SUNNY     89  44  20 VRB3      30.01F HAZE             
WENATCHEE      PTSUNNY   77  55  46 E8        30.02F                  
ELLENSBURG     MOSUNNY   86  48  26 NW17      30.06F                  
YAKIMA         PTSUNNY   85  46  25 CALM      30.04F                  
SUNNYSIDE ARPT PTCLDY    82  62  50 W6        30.02F                  
YAKIMA TC        N/A     85  40  20 CALM      30.03F                  
$$


SKY/WX - Weather  TMP - Temperature  DP - Dewpoint  RH - Relative Humidity
WIND - Wind Direction/Speed PRES - Barometric Pressure